TimeEST,TemperatureF,Dew PointF,Humidity,Sea Level PressureIn,VisibilityMPH,Wind Direction,Wind SpeedMPH,Gust SpeedMPH,PrecipitationIn,Events,Conditions,WindDirDegrees,DateUTC
12:54 AM,28.0,23.0,81,30.12,10.0,WSW,8.1,-,N/A,,Mostly Cloudy,250,2013-01-17 05:54:00
1:54 AM,27.0,23.0,85,30.12,10.0,WSW,5.8,-,N/A,,Overcast,250,2013-01-17 06:54:00
2:54 AM,27.0,23.0,85,30.14,10.0,WSW,4.6,-,N/A,,Overcast,250,2013-01-17 07:54:00
3:54 AM,28.0,23.0,81,30.15,10.0,SSW,6.9,-,N/A,,Overcast,210,2013-01-17 08:54:00
4:54 AM,28.9,25.0,85,30.15,10.0,West,4.6,-,N/A,,Overcast,260,2013-01-17 09:54:00
5:54 AM,30.0,25.0,82,30.16,10.0,WSW,5.8,-,N/A,,Overcast,240,2013-01-17 10:54:00
6:54 AM,30.0,25.0,82,30.19,10.0,Calm,Calm,-,N/A,,Overcast,0,2013-01-17 11:54:00
7:18 AM,30.2,26.6,86,30.18,10.0,West,3.5,-,N/A,,Overcast,260,2013-01-17 12:18:00
7:54 AM,30.9,26.1,82,30.20,10.0,Calm,Calm,-,N/A,,Overcast,0,2013-01-17 12:54:00
8:08 AM,30.2,26.6,86,30.18,10.0,NW,3.5,-,N/A,,Mostly Cloudy,320,2013-01-17 13:08:00
8:54 AM,32.0,27.0,82,30.23,10.0,NNW,3.5,-,N/A,,Mostly Cloudy,330,2013-01-17 13:54:00
9:23 AM,32.0,26.6,80,30.22,9.0,North,6.9,-,N/A,,Scattered Clouds,350,2013-01-17 14:23:00
9:45 AM,33.8,28.4,81,30.23,9.0,North,8.1,-,N/A,,Mostly Cloudy,350,2013-01-17 14:45:00
9:54 AM,34.0,28.0,79,30.26,9.0,North,9.2,-,N/A,,Mostly Cloudy,350,2013-01-17 14:54:00
10:35 AM,35.6,28.4,75,30.24,9.0,North,9.2,-,N/A,,Partly Cloudy,350,2013-01-17 15:35:00
10:54 AM,36.0,28.9,76,30.26,8.0,North,10.4,-,N/A,,Partly Cloudy,350,2013-01-17 15:54:00
11:54 AM,39.0,28.9,67,30.25,10.0,North,8.1,-,N/A,,Partly Cloudy,10,2013-01-17 16:54:00
12:54 PM,39.0,28.9,67,30.23,10.0,NNW,10.4,-,N/A,,Scattered Clouds,330,2013-01-17 17:54:00
1:54 PM,39.0,27.0,62,30.22,10.0,NW,11.5,-,N/A,,Partly Cloudy,310,2013-01-17 18:54:00
2:54 PM,37.9,25.0,60,30.23,10.0,NNW,18.4,-,N/A,,Partly Cloudy,330,2013-01-17 19:54:00
3:54 PM,37.0,24.1,59,30.24,10.0,NW,18.4,-,N/A,,Partly Cloudy,320,2013-01-17 20:54:00
4:54 PM,36.0,21.9,57,30.27,10.0,NNW,17.3,-,N/A,,Partly Cloudy,330,2013-01-17 21:54:00
5:54 PM,32.0,19.9,61,30.30,10.0,NNW,12.7,-,N/A,,Partly Cloudy,330,2013-01-17 22:54:00
6:54 PM,30.0,17.1,59,30.33,10.0,NNW,10.4,-,N/A,,Clear,330,2013-01-17 23:54:00
7:54 PM,28.0,18.0,66,30.36,10.0,North,8.1,-,N/A,,Clear,10,2013-01-18 00:54:00
8:54 PM,26.1,16.0,66,30.40,10.0,NNW,9.2,-,N/A,,Clear,340,2013-01-18 01:54:00
9:54 PM,25.0,16.0,69,30.42,10.0,North,8.1,-,N/A,,Clear,10,2013-01-18 02:54:00
10:54 PM,23.0,15.1,72,30.43,10.0,NNW,6.9,-,N/A,,Clear,330,2013-01-18 03:54:00
11:54 PM,21.9,15.1,75,30.44,10.0,NW,3.5,-,N/A,,Clear,310,2013-01-18 04:54:00